When you browse on this site, cookies collect data to enhance your experience and personalize the content and advertising you see.
Visit our Privacy Policy to learn more. By continuing to use the site, you agree to this use of cookies and data.

Hourly Weather Kerns

Today, 5 July, Sunday

Time Temperature Precipitation Wind Pressure Humidity
00:00 +17°C° 0 mm 4 mps 763 mmHg 91%
01:00 +17°C° 0 mm 4 mps 763 mmHg 91%
02:00 +17°C° 0 mm 4 mps 763 mmHg 92%
03:00 +17°C° 0 mm 4 mps 762 mmHg 93%
04:00 +17°C° 0 mm 4 mps 762 mmHg 93%
05:00 +17°C° 0 mm 4 mps 762 mmHg 93%
06:00 +16°C° 0 mm 5 mps 763 mmHg 93%
07:00 +16°C° 0 mm 5 mps 763 mmHg 93%
08:00 +19°C° 0.1 mm 6 mps 763 mmHg 84%
09:00 +21°C° 0.1 mm 6 mps 763 mmHg 75%
10:00 +24°C° 0 mm 7 mps 764 mmHg 66%
11:00 +24°C° 0 mm 7 mps 763 mmHg 62%
12:00 +26°C° 0 mm 7 mps 763 mmHg 58%
13:00 +26°C° 0 mm 7 mps 762 mmHg 54%
14:00 +26°C° 0 mm 7 mps 762 mmHg 55%
15:00 +24°C° 0 mm 7 mps 762 mmHg 56%
16:00 +24°C° 0 mm 6 mps 762 mmHg 59%
17:00 +22°C° 0 mm 6 mps 762 mmHg 68%
18:00 +20°C° 0 mm 5 mps 763 mmHg 77%
19:00 +17°C° 0 mm 5 mps 763 mmHg 86%
20:00 +16°C° 0 mm 5 mps 763 mmHg 89%
21:00 +15°C° 0 mm 5 mps 763 mmHg 91%
22:00 +15°C° 0 mm 5 mps 763 mmHg 94%
23:00 +15°C° 0 mm 5 mps 763 mmHg 92%

Tomorrow, 6 July, Monday

Time Temperature Precipitation Wind Pressure Humidity
00:00 +16°C° 0 mm 5 mps 763 mmHg 91%
01:00 +17°C° 0 mm 4 mps 763 mmHg 89%
02:00 +16°C° 0 mm 5 mps 763 mmHg 89%
03:00 +16°C° 0 mm 5 mps 763 mmHg 89%
04:00 +16°C° 0 mm 5 mps 762 mmHg 88%
05:00 +15°C° 0 mm 5 mps 763 mmHg 89%
06:00 +15°C° 0 mm 5 mps 763 mmHg 90%
07:00 +15°C° 0 mm 5 mps 763 mmHg 91%
08:00 +17°C° 0 mm 6 mps 764 mmHg 81%
09:00 +20°C° 0 mm 6 mps 764 mmHg 72%
10:00 +23°C° 0 mm 7 mps 764 mmHg 62%
11:00 +23°C° 0 mm 7 mps 764 mmHg 60%
12:00 +24°C° 0 mm 7 mps 763 mmHg 58%
13:00 +26°C° 0 mm 7 mps 762 mmHg 55%
14:00 +26°C° 0 mm 7 mps 762 mmHg 58%
15:00 +24°C° 0 mm 6 mps 762 mmHg 61%
16:00 +24°C° 0 mm 6 mps 762 mmHg 63%
17:00 +22°C° 0 mm 6 mps 762 mmHg 72%
18:00 +20°C° 0 mm 6 mps 763 mmHg 80%
19:00 +19°C° 0 mm 5 mps 763 mmHg 88%
20:00 +19°C° 0.1 mm 5 mps 764 mmHg 90%
21:00 +17°C° 0.1 mm 5 mps 764 mmHg 92%
22:00 +17°C° 0.1 mm 5 mps 764 mmHg 94%
23:00 +18°C° 0.1 mm 4 mps 764 mmHg 95%

Day after tomorrow, 7 July, Tuesday

Time Temperature Precipitation Wind Pressure Humidity
00:00 +18°C° 0.1 mm 4 mps 763 mmHg 96%
01:00 +18°C° 0.1 mm 4 mps 763 mmHg 97%
02:00 +19°C° 0.2 mm 5 mps 763 mmHg 97%
03:00 +19°C° 0.2 mm 5 mps 762 mmHg 97%
04:00 +20°C° 0.2 mm 5 mps 762 mmHg 97%
05:00 +20°C° 0.2 mm 5 mps 762 mmHg 97%
06:00 +20°C° 0.2 mm 5 mps 762 mmHg 96%
07:00 +20°C° 0.2 mm 5 mps 763 mmHg 96%
08:00 +21°C° 0.1 mm 6 mps 763 mmHg 89%
09:00 +22°C° 0.1 mm 6 mps 763 mmHg 82%
10:00 +23°C° 0.1 mm 7 mps 764 mmHg 75%
11:00 +24°C° 0.1 mm 7 mps 763 mmHg 72%
12:00 +26°C° 0.1 mm 6 mps 763 mmHg 68%
13:00 +26°C° 0.1 mm 6 mps 762 mmHg 65%
14:00 +26°C° 0.1 mm 6 mps 762 mmHg 67%
15:00 +26°C° 0.1 mm 6 mps 762 mmHg 69%
16:00 +24°C° 0.1 mm 6 mps 761 mmHg 71%
17:00 +23°C° 0.1 mm 6 mps 762 mmHg 78%
18:00 +21°C° 0.1 mm 5 mps 762 mmHg 85%
19:00 +20°C° 0.1 mm 5 mps 762 mmHg 92%
20:00 +20°C° 0.1 mm 5 mps 763 mmHg 94%
21:00 +20°C° 0.1 mm 5 mps 763 mmHg 95%
22:00 +20°C° 0.1 mm 5 mps 763 mmHg 97%
23:00 +20°C° 0.3 mm 5 mps 763 mmHg 97%

8 July, Wednesday

Time Temperature Precipitation Wind Pressure Humidity
00:00 +20°C° 0.3 mm 5 mps 763 mmHg 97%
01:00 +20°C° 0.3 mm 6 mps 762 mmHg 97%
02:00 +20°C° 0.3 mm 6 mps 762 mmHg 97%
03:00 +20°C° 0.3 mm 5 mps 762 mmHg 96%
04:00 +20°C° 0.3 mm 5 mps 761 mmHg 96%
05:00 +20°C° 0.2 mm 5 mps 762 mmHg 96%
06:00 +20°C° 0.2 mm 5 mps 762 mmHg 97%
07:00 +20°C° 0.2 mm 5 mps 762 mmHg 97%
08:00 +21°C° 0.2 mm 5 mps 762 mmHg 94%
09:00 +22°C° 0.2 mm 6 mps 762 mmHg 90%
10:00 +23°C° 0.2 mm 6 mps 763 mmHg 86%
11:00 +24°C° 0.1 mm 6 mps 762 mmHg 79%
12:00 +26°C° 0.1 mm 6 mps 761 mmHg 72%
13:00 +27°C° 0.1 mm 6 mps 761 mmHg 64%
14:00 +27°C° 0 mm 6 mps 761 mmHg 63%
15:00 +27°C° 0 mm 6 mps 760 mmHg 62%
16:00 +26°C° 0 mm 6 mps 760 mmHg 61%
17:00 +25°C° 0 mm 5 mps 761 mmHg 71%
18:00 +22°C° 0 mm 5 mps 761 mmHg 81%
19:00 +20°C° 0 mm 5 mps 761 mmHg 92%
20:00 +20°C° 0.2 mm 5 mps 762 mmHg 93%
21:00 +20°C° 0.2 mm 5 mps 762 mmHg 95%
22:00 +20°C° 0.2 mm 6 mps 762 mmHg 97%
23:00 +21°C° 0.4 mm 6 mps 762 mmHg 97%

9 July, Thursday

Time Temperature Precipitation Wind Pressure Humidity
00:00 +21°C° 0.4 mm 6 mps 762 mmHg 97%
01:00 +21°C° 0.4 mm 6 mps 762 mmHg 96%
02:00 +21°C° 0.2 mm 6 mps 761 mmHg 97%
03:00 +20°C° 0.2 mm 6 mps 761 mmHg 97%
04:00 +20°C° 0.2 mm 5 mps 761 mmHg 97%
05:00 +20°C° 0.1 mm 5 mps 761 mmHg 97%
06:00 +20°C° 0.1 mm 5 mps 762 mmHg 97%
07:00 +20°C° 0.1 mm 5 mps 762 mmHg 97%
08:00 +21°C° 0.1 mm 5 mps 762 mmHg 92%
09:00 +23°C° 0.1 mm 6 mps 762 mmHg 87%
10:00 +24°C° 0.1 mm 6 mps 762 mmHg 83%
11:00 +24°C° 0.4 mm 6 mps 762 mmHg 82%
12:00 +26°C° 0.4 mm 6 mps 761 mmHg 82%
13:00 +26°C° 0.4 mm 6 mps 761 mmHg 81%
14:00 +24°C° 0.4 mm 6 mps 761 mmHg 83%
15:00 +24°C° 0.4 mm 6 mps 760 mmHg 85%
16:00 +24°C° 0.4 mm 6 mps 760 mmHg 86%
17:00 +23°C° 0.3 mm 6 mps 761 mmHg 89%
18:00 +22°C° 0.3 mm 6 mps 761 mmHg 93%
19:00 +22°C° 0.3 mm 6 mps 762 mmHg 96%
20:00 +21°C° 0.1 mm 6 mps 762 mmHg 95%
21:00 +21°C° 0.1 mm 6 mps 762 mmHg 95%
22:00 +21°C° 0.1 mm 6 mps 763 mmHg 95%
23:00 +21°C° 0.1 mm 6 mps 762 mmHg 95%

10 July, Friday

Time Temperature Precipitation Wind Pressure Humidity
00:00 +20°C° 0.1 mm 6 mps 762 mmHg 95%
01:00 +20°C° 0.1 mm 5 mps 762 mmHg 95%
02:00 +20°C° 0 mm 5 mps 762 mmHg 95%
03:00 +20°C° 0 mm 5 mps 761 mmHg 95%
04:00 +19°C° 0 mm 5 mps 761 mmHg 95%
05:00 +19°C° 0 mm 5 mps 761 mmHg 95%
06:00 +19°C° 0 mm 5 mps 762 mmHg 95%
07:00 +20°C° 0 mm 5 mps 762 mmHg 95%
08:00 +21°C° 0 mm 5 mps 762 mmHg 87%
09:00 +23°C° 0 mm 5 mps 762 mmHg 78%
10:00 +26°C° 0 mm 5 mps 762 mmHg 70%
11:00 +27°C° 0 mm 6 mps 762 mmHg 66%
12:00 +27°C° 0 mm 6 mps 761 mmHg 61%
13:00 +28°C° 0 mm 6 mps 761 mmHg 57%
14:00 +28°C° 0 mm 6 mps 761 mmHg 61%
15:00 +27°C° 0 mm 6 mps 761 mmHg 64%
16:00 +26°C° 0 mm 6 mps 760 mmHg 68%
17:00 +25°C° 0 mm 5 mps 761 mmHg 76%
18:00 +22°C° 0 mm 5 mps 761 mmHg 84%
19:00 +21°C° 0 mm 4 mps 762 mmHg 93%
20:00 +21°C° 0 mm 4 mps 762 mmHg 93%
21:00 +20°C° 0 mm 4 mps 762 mmHg 94%
22:00 +20°C° 0 mm 4 mps 763 mmHg 95%
23:00 +20°C° 0 mm 4 mps 762 mmHg 94%
Show more